| time (UTC) | temp F | wind direction | speed MPH | gust MPH | rain 1hr in | rain 24hr in | rain mn in | humidity % | barometer mb |
| 20260902234534 | 76 | 0 | 0.0 | 5.0 | 0.00 | 1.04 | 1.04 | 86 | 1016.4 |
| 20260902233033 | 77 | 69 | 1.0 | 3.0 | 0.00 | 1.04 | 1.04 | 86 | 1016.2 |
| 20260902231543 | 77 | 51 | 1.0 | 5.0 | 0.01 | 1.04 | 1.04 | 84 | 1015.5 |
| 20260902230035 | 78 | 0 | 0.0 | 6.0 | 0.01 | 1.04 | 1.04 | 83 | 1015.4 |
| 20260902224551 | 78 | 161 | 1.0 | 7.0 | 0.01 | 1.04 | 1.04 | 83 | 1015.7 |
| 20260902223043 | 79 | 182 | 3.0 | 8.0 | 0.01 | 1.04 | 1.04 | 83 | 1016.0 |
| 20260902221543 | 79 | 198 | 3.0 | 8.0 | 0.00 | 1.03 | 1.03 | 82 | 1016.4 |
| 20260902220051 | 79 | 174 | 3.0 | 10.0 | 0.00 | 1.03 | 1.03 | 84 | 1016.3 |
| 20260902214537 | 80 | 178 | 2.0 | 8.0 | 0.00 | 1.03 | 1.03 | 83 | 1016.5 |
| 20260902213039 | 81 | 200 | 3.0 | 7.0 | 0.00 | 1.03 | 1.03 | 80 | 1016.6 |
| 20260902211535 | 82 | 259 | 2.0 | 6.0 | 0.01 | 1.03 | 1.03 | 76 | 1016.7 |
| 20260902210044 | 81 | 270 | 2.0 | 8.0 | 0.01 | 1.03 | 1.03 | 76 | 1016.9 |
| 20260902204535 | 81 | 0 | 2.0 | 8.0 | 0.01 | 1.03 | 1.03 | 84 | 1017.0 |
| 20260902203039 | 80 | 150 | 2.0 | 5.0 | 0.01 | 1.03 | 1.03 | 81 | 1016.8 |
| 20260902201543 | 80 | 87 | 2.0 | 4.0 | 0.00 | 1.02 | 1.02 | 83 | 1016.8 |
| 20260902200038 | 80 | 157 | 0.0 | 4.0 | 0.01 | 1.02 | 1.02 | 84 | 1017.0 |
| 20260902194536 | 80 | 138 | 2.0 | 6.0 | 0.01 | 1.02 | 1.02 | 84 | 1017.1 |
| 20260902193041 | 79 | 88 | 1.0 | 5.0 | 0.01 | 1.02 | 1.02 | 80 | 1017.5 |
| 20260902191534 | 80 | 0 | 1.0 | 3.0 | 0.02 | 1.02 | 1.02 | 82 | 1017.3 |
| 20260902190037 | 78 | 173 | 1.0 | 4.0 | 0.01 | 1.01 | 1.01 | 85 | 1017.3 |
| 20260902184534 | 78 | 0 | 0.0 | 3.0 | 0.01 | 1.01 | 1.01 | 85 | 1017.3 |
| 20260902183039 | 76 | 75 | 1.0 | 3.0 | 0.02 | 1.01 | 1.01 | 89 | 1017.5 |
| 20260902181534 | 74 | 293 | 1.0 | 3.0 | 0.01 | 1.00 | 1.00 | 89 | 1017.7 |
| 20260902180036 | 72 | 335 | 3.0 | 5.0 | 0.02 | 1.00 | 1.00 | 92 | 1018.0 |
| 20260902174534 | 71 | 286 | 3.0 | 5.0 | 0.02 | 1.00 | 1.00 | 95 | 1018.0 |
| 20260902173038 | 70 | 323 | 3.0 | 8.0 | 0.01 | 0.99 | 0.99 | 95 | 1018.3 |
| 20260902171542 | 70 | 290 | 0.0 | 2.0 | 0.02 | 0.99 | 0.99 | 95 | 1019.3 |
| 20260902170034 | 69 | 278 | 0.0 | 5.0 | 0.01 | 0.98 | 0.98 | 95 | 1019.5 |
| 20260902164537 | 69 | 173 | 1.0 | 3.0 | 0.02 | 0.98 | 0.98 | 96 | 1019.4 |
| 20260902163037 | 68 | 0 | 0.0 | 2.0 | 0.03 | 0.98 | 0.98 | 96 | 1019.1 |
| 20260902161536 | 68 | 275 | 2.0 | 4.0 | 0.02 | 0.97 | 0.97 | 95 | 1019.4 |
| 20260902160036 | 68 | 53 | 1.0 | 5.0 | 0.03 | 0.97 | 0.97 | 95 | 1019.1 |
| 20260902154533 | 68 | 158 | 1.0 | 6.0 | 0.02 | 0.96 | 0.96 | 95 | 1019.1 |
| 20260902153046 | 69 | 182 | 1.0 | 4.0 | 0.02 | 0.95 | 0.95 | 94 | 1019.7 |
| 20260902151538 | 70 | 290 | 1.0 | 4.0 | 0.03 | 0.95 | 0.95 | 94 | 1020.3 |
| 20260902150037 | 70 | 321 | 4.0 | 9.0 | 0.02 | 0.94 | 0.94 | 95 | 1020.2 |
| 20260902144533 | 70 | 5 | 3.0 | 8.0 | 0.02 | 0.94 | 0.94 | 96 | 1019.9 |
| 20260902143032 | 71 | 287 | 4.0 | 10.0 | 0.02 | 0.93 | 0.93 | 96 | 1019.2 |
| 20260902141537 | 70 | 0 | 0.0 | 2.0 | 0.01 | 0.92 | 0.92 | 96 | 1018.9 |
| 20260902140035 | 71 | 0 | 0.0 | 4.0 | 0.02 | 0.92 | 0.92 | 96 | 1018.5 |
| 20260902134540 | 71 | 90 | 0.0 | 4.0 | 0.02 | 0.92 | 0.92 | 96 | 1018.3 |
| 20260902133033 | 71 | 0 | 0.0 | 3.0 | 0.01 | 0.91 | 0.91 | 96 | 1018.2 |
| 20260902131540 | 70 | 157 | 1.0 | 3.0 | 0.01 | 0.91 | 0.91 | 96 | 1018.1 |
| 20260902130035 | 70 | 0 | 1.0 | 3.0 | 0.00 | 0.90 | 0.90 | 96 | 1018.3 |
| 20260902124531 | 70 | 157 | 0.0 | 3.0 | 0.00 | 0.90 | 0.90 | 96 | 1018.5 |
| 20260902123037 | 69 | 0 | 0.0 | 3.0 | 0.00 | 0.90 | 0.90 | 97 | 1018.3 |
| 20260902121534 | 68 | 157 | 1.0 | 3.0 | 0.00 | 0.90 | 0.90 | 98 | 1018.0 |
| 20260902120032 | 67 | 157 | 0.0 | 3.0 | 0.00 | 0.90 | 0.90 | 98 | 1017.9 |
| 20260902114533 | 66 | 0 | 0.0 | 2.0 | 0.00 | 0.90 | 0.90 | 97 | 1017.8 |
| 20260902113037 | 65 | 157 | 2.0 | 3.0 | 0.00 | 0.90 | 0.90 | 97 | 1017.9 |
| 20260902111535 | 65 | 97 | 0.0 | 3.0 | 0.00 | 0.90 | 0.90 | 97 | 1017.5 |
| 20260902110040 | 65 | 97 | 0.0 | 2.0 | 0.00 | 0.90 | 0.90 | 97 | 1017.6 |
| 20260902104534 | 65 | 0 | 0.0 | 2.0 | 0.00 | 0.90 | 0.90 | 97 | 1017.5 |
| 20260902103033 | 65 | 0 | 0.0 | 3.0 | 0.00 | 0.90 | 0.90 | 97 | 1017.6 |
| 20260902101536 | 66 | 0 | 1.0 | 3.0 | 0.00 | 0.90 | 0.90 | 97 | 1017.8 |
| 20260902100034 | 66 | 0 | 0.0 | 3.0 | 0.00 | 0.90 | 0.90 | 97 | 1017.8 |
| 20260902094532 | 66 | 0 | 0.0 | 2.0 | 0.00 | 0.93 | 0.90 | 97 | 1017.9 |
| 20260902093039 | 67 | 188 | 0.0 | 2.0 | 0.00 | 0.93 | 0.90 | 97 | 1017.8 |
| 20260902091531 | 67 | 188 | 0.0 | 2.0 | 0.00 | 0.93 | 0.90 | 97 | 1017.7 |
| 20260902090034 | 67 | 0 | 0.0 | 2.0 | 0.00 | 0.93 | 0.90 | 97 | 1017.6 |
| 20260902084532 | 68 | 0 | 0.0 | 2.0 | 0.00 | 0.93 | 0.90 | 97 | 1017.7 |
| 20260902083031 | 68 | 0 | 0.0 | 0.0 | 0.00 | 0.93 | 0.90 | 96 | 1017.5 |
| 20260902081535 | 68 | 0 | 0.0 | 0.0 | 0.00 | 0.93 | 0.90 | 96 | 1017.4 |
| 20260902080034 | 68 | 0 | 0.0 | 2.0 | 0.00 | 0.93 | 0.90 | 96 | 1017.3 |
| 20260902074537 | 68 | 0 | 0.0 | 2.0 | 0.00 | 0.93 | 0.90 | 96 | 1017.4 |
| 20260902073035 | 69 | 0 | 0.0 | 2.0 | 0.00 | 0.93 | 0.90 | 95 | 1017.4 |
| 20260902071534 | 69 | 0 | 0.0 | 2.0 | 0.06 | 0.93 | 0.90 | 95 | 1017.3 |
| 20260902070034 | 69 | 0 | 0.0 | 3.0 | 0.25 | 0.93 | 0.90 | 93 | 1017.5 |
| 20260902064534 | 70 | 270 | 1.0 | 4.0 | 0.69 | 0.93 | 0.90 | 93 | 1017.7 |
| 20260902063034 | 70 | 0 | 0.0 | 2.0 | 0.89 | 0.93 | 0.90 | 93 | 1017.7 |
| 20260902060040 | 69 | 311 | 2.0 | 7.0 | 0.64 | 0.67 | 0.64 | 94 | 1018.1 |
| 20260902054532 | 70 | 332 | 4.0 | 8.0 | 0.18 | 0.21 | 0.18 | 95 | 1018.5 |
| 20260902053038 | 69 | 0 | 0.0 | 2.0 | 0.01 | 0.04 | 0.01 | 94 | 1017.7 |
| 20260902051532 | 69 | 0 | 0.0 | 3.0 | 0.00 | 0.03 | 0.00 | 94 | 1017.9 |
| 20260902050034 | 70 | 0 | 0.0 | 2.0 | 0.00 | 0.03 | 0.00 | 93 | 1017.9 |
| 20260902044538 | 70 | 0 | 0.0 | 1.0 | 0.00 | 0.03 | 0.00 | 93 | 1017.7 |
| 20260902043034 | 70 | 134 | 0.0 | 2.0 | 0.00 | 0.03 | 0.00 | 93 | 1017.8 |
| 20260902041537 | 70 | 134 | 0.0 | 2.0 | 0.00 | 0.03 | 0.00 | 91 | 1017.6 |
| 20260902040045 | 71 | 88 | 1.0 | 4.0 | 0.00 | 0.03 | 0.00 | 90 | 1017.5 |
| 20260902034537 | 71 | 90 | 0.0 | 3.0 | 0.00 | 0.03 | 0.03 | 90 | 1017.3 |
| 20260902033035 | 72 | 108 | 1.0 | 3.0 | 0.00 | 0.03 | 0.03 | 88 | 1017.2 |
| 20260902031540 | 72 | 105 | 0.0 | 5.0 | 0.00 | 0.03 | 0.03 | 88 | 1017.2 |
| 20260902030032 | 72 | 92 | 2.0 | 5.0 | 0.00 | 0.03 | 0.03 | 87 | 1017.3 |
| 20260902024537 | 73 | 143 | 1.0 | 7.0 | 0.00 | 0.03 | 0.03 | 85 | 1017.0 |
| 20260902023041 | 76 | 128 | 2.0 | 10.0 | 0.00 | 0.03 | 0.03 | 83 | 1016.6 |
| 20260902021534 | 79 | 99 | 3.0 | 8.0 | 0.00 | 0.03 | 0.03 | 83 | 1016.5 |
| 20260902020037 | 80 | 0 | 0.0 | 5.0 | 0.00 | 0.03 | 0.03 | 80 | 1015.9 |
| 20260902014531 | 81 | 355 | 3.0 | 8.0 | 0.00 | 0.03 | 0.03 | 78 | 1015.2 |
| 20260902013032 | 80 | 299 | 2.0 | 6.0 | 0.00 | 0.03 | 0.03 | 79 | 1015.6 |
| 20260902011535 | 81 | 315 | 3.0 | 6.0 | 0.00 | 0.03 | 0.03 | 79 | 1015.7 |
| 20260902010032 | 81 | 279 | 2.0 | 5.0 | 0.00 | 0.03 | 0.03 | 78 | 1015.5 |
| 20260902004533 | 81 | 333 | 2.0 | 6.0 | 0.00 | 0.03 | 0.03 | 78 | 1015.8 |
| 20260902003039 | 81 | 350 | 1.0 | 4.0 | 0.00 | 0.03 | 0.03 | 78 | 1015.6 |
| 20260902001545 | 81 | 5 | 1.0 | 6.0 | 0.00 | 0.03 | 0.03 | 77 | 1015.0 |
| 20260902000038 | 81 | 0 | 1.0 | 7.0 | 0.00 | 0.03 | 0.03 | 77 | 1014.6 |